Time,TemperatureF,DewpointF,PressureIn,WindDirection,WindDirectionDegrees,WindSpeedMPH,WindSpeedGustMPH,Humidity,HourlyPrecipIn,Conditions,Clouds,dailyrainin,SolarRadiationWatts/m^2,SoftwareType,DateUTC
2013-07-02 00:01:00,61.5,50.9,30.06,SSW,202,0.0,0.0,68,0.00,CLR,,0.00,0.0,WeatherDisplay:10.37,2013-07-02 05:01:00,
2013-07-02 00:06:00,61.3,50.7,30.06,SSE,158,0.0,0.0,68,0.00,CLR,,0.00,0.0,WeatherDisplay:10.37,2013-07-02 05:06:00,
2013-07-02 00:11:00,61.0,49.9,30.06,East,90,2.3,2.3,67,0.00,CLR,,0.00,0.0,WeatherDisplay:10.37,2013-07-02 05:11:00,
2013-07-02 00:17:00,61.0,50.3,30.06,East,90,1.1,0.0,68,0.00,CLR,,0.00,0.0,WeatherDisplay:10.37,2013-07-02 05:17:00,
2013-07-02 00:22:00,60.8,50.2,30.06,East,90,0.0,0.0,68,0.00,CLR,,0.00,0.0,WeatherDisplay:10.37,2013-07-02 05:22:00,
2013-07-02 00:27:00,60.6,50.0,30.06,East,90,0.0,0.0,68,0.00,CLR,,0.00,0.0,WeatherDisplay:10.37,2013-07-02 05:27:00,
2013-07-02 00:32:00,60.6,50.0,30.06,East,90,1.1,0.0,68,0.00,CLR,,0.00,0.0,WeatherDisplay:10.37,2013-07-02 05:32:00,
2013-07-02 00:38:00,60.6,50.4,30.06,East,90,1.1,0.0,69,0.00,CLR,,0.00,0.0,WeatherDisplay:10.37,2013-07-02 05:38:00,
2013-07-02 00:43:00,60.4,50.2,30.06,ENE,68,1.1,2.0,69,0.00,CLR,,0.00,0.0,WeatherDisplay:10.37,2013-07-02 05:43:00,
2013-07-02 00:48:00,60.6,50.4,30.06,ENE,68,1.1,1.4,69,0.00,CLR,,0.00,0.0,WeatherDisplay:10.37,2013-07-02 05:48:00,
2013-07-02 00:53:00,60.4,50.2,30.06,NE,45,3.5,3.5,69,0.00,CLR,,0.00,0.0,WeatherDisplay:10.37,2013-07-02 05:53:00,
2013-07-02 00:58:00,60.4,50.2,30.06,ENE,68,2.3,2.3,69,0.00,CLR,,0.00,0.0,WeatherDisplay:10.37,2013-07-02 05:58:00,
2013-07-02 01:03:00,60.4,50.2,30.06,North,0,2.3,2.3,69,0.00,CLR,,0.00,0.0,WeatherDisplay:10.37,2013-07-02 06:03:00,
2013-07-02 01:08:00,60.3,50.0,30.06,East,90,2.3,2.3,69,0.00,CLR,,0.00,0.0,WeatherDisplay:10.37,2013-07-02 06:08:00,
2013-07-02 01:14:00,60.1,49.9,30.06,North,0,1.1,1.1,69,0.00,CLR,,0.00,0.0,WeatherDisplay:10.37,2013-07-02 06:14:00,
2013-07-02 01:19:00,60.1,49.9,30.06,ESE,112,0.0,0.0,69,0.00,CLR,,0.00,0.0,WeatherDisplay:10.37,2013-07-02 06:19:00,
2013-07-02 01:24:00,59.9,49.7,30.06,North,0,2.0,2.0,69,0.00,CLR,,0.00,0.0,WeatherDisplay:10.37,2013-07-02 06:24:00,
2013-07-02 01:29:00,59.7,49.9,30.06,ESE,112,1.4,1.4,70,0.00,CLR,,0.00,0.0,WeatherDisplay:10.37,2013-07-02 06:29:00,
2013-07-02 01:35:00,59.7,49.9,30.06,ENE,68,1.4,1.4,70,0.00,CLR,,0.00,0.0,WeatherDisplay:10.37,2013-07-02 06:35:00,
2013-07-02 01:40:00,59.5,49.7,30.06,NE,45,2.3,2.3,70,0.00,CLR,,0.00,0.0,WeatherDisplay:10.37,2013-07-02 06:40:00,
2013-07-02 01:45:00,59.4,49.6,30.03,NE,45,0.0,0.0,70,0.00,CLR,,0.00,0.0,WeatherDisplay:10.37,2013-07-02 06:45:00,
2013-07-02 01:50:00,59.2,49.4,30.03,NE,45,1.1,0.0,70,0.00,CLR,,0.00,0.0,WeatherDisplay:10.37,2013-07-02 06:50:00,
2013-07-02 01:56:00,59.2,49.8,30.03,NE,45,2.3,2.3,71,0.00,CLR,,0.00,0.0,WeatherDisplay:10.37,2013-07-02 06:56:00,
2013-07-02 02:01:00,59.0,49.6,30.03,NE,45,0.0,0.0,71,0.00,CLR,,0.00,0.0,WeatherDisplay:10.37,2013-07-02 07:01:00,
2013-07-02 02:06:00,58.8,49.8,30.03,NE,45,0.0,0.0,72,0.00,CLR,,0.00,0.0,WeatherDisplay:10.37,2013-07-02 07:06:00,
2013-07-02 02:11:00,58.6,49.6,30.03,NE,45,0.0,0.0,72,0.00,CLR,,0.00,0.0,WeatherDisplay:10.37,2013-07-02 07:11:00,
2013-07-02 02:16:00,58.5,49.5,30.06,NE,45,0.0,0.0,72,0.00,CLR,,0.00,0.0,WeatherDisplay:10.37,2013-07-02 07:16:00,
2013-07-02 02:21:00,58.1,49.5,30.06,NE,45,0.0,0.0,73,0.00,CLR,,0.00,0.0,WeatherDisplay:10.37,2013-07-02 07:21:00,
2013-07-02 02:26:00,57.9,49.3,30.06,NE,45,1.1,0.0,73,0.00,CLR,,0.00,0.0,WeatherDisplay:10.37,2013-07-02 07:26:00,
2013-07-02 02:31:00,57.9,49.7,30.06,NE,45,0.0,0.0,74,0.00,CLR,,0.00,0.0,WeatherDisplay:10.37,2013-07-02 07:31:00,
2013-07-02 02:37:00,57.6,49.3,30.06,NE,45,0.0,0.0,74,0.00,CLR,,0.00,0.0,WeatherDisplay:10.37,2013-07-02 07:37:00,
2013-07-02 02:42:00,57.4,49.2,30.06,NE,45,1.1,0.0,74,0.00,CLR,,0.00,0.0,WeatherDisplay:10.37,2013-07-02 07:42:00,
2013-07-02 02:47:00,57.2,49.0,30.06,NE,45,0.0,0.0,74,0.00,CLR,,0.00,0.0,WeatherDisplay:10.37,2013-07-02 07:47:00,
2013-07-02 02:53:00,57.2,49.3,30.06,ENE,68,1.1,0.0,75,0.00,CLR,,0.00,0.0,WeatherDisplay:10.37,2013-07-02 07:53:00,
2013-07-02 02:58:00,57.0,49.5,30.06,ENE,68,0.0,0.0,76,0.00,CLR,,0.00,0.0,WeatherDisplay:10.37,2013-07-02 07:58:00,
2013-07-02 03:03:00,56.8,49.7,30.06,ENE,68,0.0,0.0,77,0.00,CLR,,0.00,0.0,WeatherDisplay:10.37,2013-07-02 08:03:00,
2013-07-02 03:08:00,56.7,49.5,30.06,ENE,68,0.0,0.0,77,0.00,CLR,,0.00,0.0,WeatherDisplay:10.37,2013-07-02 08:08:00,
2013-07-02 03:13:00,56.7,49.5,30.03,ENE,68,1.1,1.4,77,0.00,CLR,,0.00,0.0,WeatherDisplay:10.37,2013-07-02 08:13:00,
2013-07-02 03:18:00,56.5,49.7,30.03,ENE,68,1.1,1.1,78,0.00,CLR,,0.00,0.0,WeatherDisplay:10.37,2013-07-02 08:18:00,
2013-07-02 03:23:00,56.3,49.5,30.03,East,90,2.3,2.3,78,0.00,CLR,,0.00,0.0,WeatherDisplay:10.37,2013-07-02 08:23:00,
2013-07-02 03:28:00,56.3,49.5,30.03,ESE,112,2.3,2.3,78,0.00,CLR,,0.00,0.0,WeatherDisplay:10.37,2013-07-02 08:28:00,
2013-07-02 03:34:00,56.1,49.7,30.03,ESE,112,1.1,0.0,79,0.00,CLR,,0.00,0.0,WeatherDisplay:10.37,2013-07-02 08:34:00,
2013-07-02 03:39:00,55.9,49.5,30.03,ENE,68,2.3,2.3,79,0.00,CLR,,0.00,0.0,WeatherDisplay:10.37,2013-07-02 08:39:00,
2013-07-02 03:44:00,55.9,49.5,30.06,ENE,68,1.1,0.0,79,0.00,CLR,,0.00,0.0,WeatherDisplay:10.37,2013-07-02 08:44:00,
2013-07-02 03:49:00,55.8,49.7,30.06,ENE,68,1.4,1.4,80,0.00,CLR,,0.00,0.0,WeatherDisplay:10.37,2013-07-02 08:49:00,
2013-07-02 03:54:00,55.6,49.5,30.06,ENE,68,0.0,0.0,80,0.00,CLR,,0.00,0.0,WeatherDisplay:10.37,2013-07-02 08:54:00,
2013-07-02 04:00:00,55.4,49.3,30.06,ENE,68,0.0,0.0,80,0.00,CLR,,0.00,0.0,WeatherDisplay:10.37,2013-07-02 09:00:00,
2013-07-02 04:05:00,55.2,49.5,30.06,ENE,68,0.0,0.0,81,0.00,CLR,,0.00,0.0,WeatherDisplay:10.37,2013-07-02 09:05:00,
2013-07-02 04:10:00,55.0,49.3,30.06,ENE,68,1.4,1.4,81,0.00,CLR,,0.00,0.0,WeatherDisplay:10.37,2013-07-02 09:10:00,
2013-07-02 04:15:00,54.9,49.5,30.06,ENE,68,0.0,0.0,82,0.00,CLR,,0.00,0.0,WeatherDisplay:10.37,2013-07-02 09:15:00,
2013-07-02 04:20:00,54.7,49.3,30.06,ENE,68,0.0,0.0,82,0.00,CLR,,0.00,0.0,WeatherDisplay:10.37,2013-07-02 09:20:00,
2013-07-02 04:25:00,54.7,49.3,30.06,ENE,68,2.3,2.3,82,0.00,CLR,,0.00,0.0,WeatherDisplay:10.37,2013-07-02 09:25:00,
2013-07-02 04:31:00,54.5,49.4,30.06,ENE,68,1.6,1.6,83,0.00,CLR,,0.00,0.0,WeatherDisplay:10.37,2013-07-02 09:31:00,
2013-07-02 04:36:00,54.5,49.4,30.06,ENE,68,1.4,1.4,83,0.00,CLR,,0.00,0.0,WeatherDisplay:10.37,2013-07-02 09:36:00,
2013-07-02 04:41:00,54.3,49.3,30.06,ENE,68,2.3,2.3,83,0.00,CLR,,0.00,0.0,WeatherDisplay:10.37,2013-07-02 09:41:00,
2013-07-02 04:46:00,54.3,49.6,30.06,ENE,68,2.3,2.3,84,0.00,CLR,,0.00,0.0,WeatherDisplay:10.37,2013-07-02 09:46:00,
2013-07-02 04:51:00,54.1,49.4,30.06,ENE,68,3.1,3.1,84,0.00,CLR,,0.00,0.0,WeatherDisplay:10.37,2013-07-02 09:51:00,
2013-07-02 04:56:00,54.1,49.4,30.06,ENE,68,2.3,2.3,84,0.00,CLR,,0.00,0.0,WeatherDisplay:10.37,2013-07-02 09:56:00,
2013-07-02 05:07:00,54.0,49.2,30.06,North,0,2.3,0.0,84,0.00,CLR,,0.00,0.0,WeatherDisplay:10.37,2013-07-02 10:07:00,
2013-07-02 05:13:00,53.6,49.2,30.06,ENE,68,1.6,1.6,85,0.00,CLR,,0.00,0.0,WeatherDisplay:10.37,2013-07-02 10:13:00,
2013-07-02 05:18:00,53.6,49.2,30.06,ENE,68,1.4,1.4,85,0.00,CLR,,0.00,0.0,WeatherDisplay:10.37,2013-07-02 10:18:00,
2013-07-02 05:23:00,53.4,49.0,30.06,ENE,68,2.3,2.3,85,0.00,CLR,,0.00,0.0,WeatherDisplay:10.37,2013-07-02 10:23:00,
2013-07-02 05:28:00,53.4,49.3,30.06,NE,45,2.3,2.3,86,0.00,CLR,,0.00,0.0,WeatherDisplay:10.37,2013-07-02 10:28:00,
2013-07-02 05:33:00,53.2,49.2,30.06,NE,45,2.3,2.3,86,0.00,CLR,,0.00,0.0,WeatherDisplay:10.37,2013-07-02 10:33:00,
2013-07-02 05:39:00,53.2,49.5,30.06,NE,45,2.3,2.3,87,0.00,CLR,,0.00,0.0,WeatherDisplay:10.37,2013-07-02 10:39:00,
2013-07-02 05:44:00,53.1,49.3,30.06,NE,45,1.6,1.6,87,0.00,CLR,,0.00,0.0,WeatherDisplay:10.37,2013-07-02 10:44:00,
2013-07-02 05:49:00,53.1,49.6,30.06,ENE,68,2.6,2.6,88,0.00,CLR,,0.00,0.0,WeatherDisplay:10.37,2013-07-02 10:49:00,
2013-07-02 05:54:00,53.1,49.6,30.06,ENE,68,2.3,2.3,88,0.00,CLR,,0.00,0.0,WeatherDisplay:10.37,2013-07-02 10:54:00,
2013-07-02 05:59:00,53.2,49.8,30.06,NE,45,3.5,3.5,88,0.00,CLR,,0.00,0.0,WeatherDisplay:10.37,2013-07-02 10:59:00,
2013-07-02 06:05:00,53.1,49.9,30.06,ENE,68,2.4,2.4,89,0.00,CLR,,0.00,0.0,WeatherDisplay:10.37,2013-07-02 11:05:00,
2013-07-02 06:10:00,53.2,50.1,30.06,NE,45,2.3,2.3,89,0.00,CLR,,0.00,0.0,WeatherDisplay:10.37,2013-07-02 11:10:00,
2013-07-02 06:11:00,53.2,50.1,30.06,NE,45,2.3,2.3,89,0.00,CLR,,0.00,0.0,WeatherDisplay:10.37,2013-07-02 11:11:00,
2013-07-02 06:16:00,53.2,50.4,30.08,NE,45,2.3,2.3,90,0.00,CLR,,0.00,0.0,WeatherDisplay:10.37,2013-07-02 11:16:00,
2013-07-02 06:21:00,53.4,50.6,30.08,ENE,68,2.3,2.3,90,0.00,CLR,,0.00,0.0,WeatherDisplay:10.37,2013-07-02 11:21:00,
2013-07-02 06:27:00,53.6,50.7,30.08,NE,45,2.3,2.3,90,0.00,CLR,,0.00,0.0,WeatherDisplay:10.37,2013-07-02 11:27:00,
2013-07-02 06:32:00,54.0,51.1,30.06,NE,45,2.3,2.6,90,0.00,CLR,,0.00,0.0,WeatherDisplay:10.37,2013-07-02 11:32:00,
2013-07-02 06:37:00,54.5,51.6,30.06,ENE,68,2.3,2.3,90,0.00,CLR,,0.00,0.0,WeatherDisplay:10.37,2013-07-02 11:37:00,
2013-07-02 06:42:00,54.9,52.3,30.06,East,90,2.3,2.3,91,0.00,CLR,,0.00,0.0,WeatherDisplay:10.37,2013-07-02 11:42:00,
2013-07-02 06:47:00,55.6,52.7,30.08,ENE,68,2.3,2.3,90,0.00,CLR,,0.00,0.0,WeatherDisplay:10.37,2013-07-02 11:47:00,
2013-07-02 06:52:00,56.3,53.4,30.08,ENE,68,3.6,3.6,90,0.00,CLR,,0.00,0.0,WeatherDisplay:10.37,2013-07-02 11:52:00,
2013-07-02 06:57:00,56.7,53.5,30.06,NNE,22,3.5,3.5,89,0.00,CLR,,0.00,0.0,WeatherDisplay:10.37,2013-07-02 11:57:00,
2013-07-02 07:02:00,56.7,53.5,30.06,ENE,68,3.5,3.5,89,0.00,CLR,,0.00,0.0,WeatherDisplay:10.37,2013-07-02 12:02:00,
2013-07-02 07:07:00,56.8,53.3,30.06,NNE,22,3.5,3.5,88,0.00,CLR,,0.00,0.0,WeatherDisplay:10.37,2013-07-02 12:07:00,
2013-07-02 07:12:00,57.2,53.7,30.08,ENE,68,4.6,4.6,88,0.00,CLR,,0.00,0.0,WeatherDisplay:10.37,2013-07-02 12:12:00,
2013-07-02 07:18:00,57.2,53.7,30.08,ENE,68,3.5,3.5,88,0.00,CLR,,0.00,0.0,WeatherDisplay:10.37,2013-07-02 12:18:00,
2013-07-02 07:23:00,57.6,53.7,30.08,NE,45,4.0,4.0,87,0.00,CLR,,0.00,0.0,WeatherDisplay:10.37,2013-07-02 12:23:00,
2013-07-02 07:28:00,57.7,53.9,30.08,ENE,68,4.6,4.6,87,0.00,CLR,,0.00,0.0,WeatherDisplay:10.37,2013-07-02 12:28:00,
2013-07-02 07:33:00,57.9,54.1,30.08,NNE,22,3.5,3.5,87,0.00,CLR,,0.00,0.0,WeatherDisplay:10.37,2013-07-02 12:33:00,
2013-07-02 07:38:00,58.3,54.4,30.08,ENE,68,2.3,2.3,87,0.00,CLR,,0.00,0.0,WeatherDisplay:10.37,2013-07-02 12:38:00,
2013-07-02 07:43:00,58.6,54.8,30.08,NNE,22,3.5,3.5,87,0.00,CLR,,0.00,0.0,WeatherDisplay:10.37,2013-07-02 12:43:00,
2013-07-02 07:48:00,58.8,54.6,30.08,NNE,22,4.6,4.6,86,0.00,CLR,,0.00,0.0,WeatherDisplay:10.37,2013-07-02 12:48:00,
2013-07-02 07:54:00,59.2,54.7,30.08,NE,45,3.5,3.5,85,0.00,CLR,,0.00,0.0,WeatherDisplay:10.37,2013-07-02 12:54:00,
2013-07-02 07:59:00,59.4,54.8,30.08,NE,45,3.1,3.1,85,0.00,CLR,,0.00,0.0,WeatherDisplay:10.37,2013-07-02 12:59:00,
2013-07-02 08:04:00,59.7,54.9,30.08,NNE,22,3.5,3.5,84,0.00,CLR,,0.00,0.0,WeatherDisplay:10.37,2013-07-02 13:04:00,
2013-07-02 08:09:00,60.1,55.2,30.08,NNE,22,3.5,3.5,84,0.00,CLR,,0.00,0.0,WeatherDisplay:10.37,2013-07-02 13:09:00,
2013-07-02 08:15:00,60.4,55.3,30.08,NNE,22,2.4,2.4,83,0.00,CLR,,0.00,0.0,WeatherDisplay:10.37,2013-07-02 13:15:00,
2013-07-02 08:20:00,60.6,55.4,30.08,ENE,68,3.8,3.8,83,0.00,CLR,,0.00,0.0,WeatherDisplay:10.37,2013-07-02 13:20:00,
2013-07-02 08:25:00,61.0,55.4,30.08,NE,45,5.8,5.8,82,0.00,CLR,,0.00,0.0,WeatherDisplay:10.37,2013-07-02 13:25:00,
2013-07-02 08:30:00,61.2,55.6,30.06,NE,45,2.4,2.4,82,0.00,CLR,,0.00,0.0,WeatherDisplay:10.37,2013-07-02 13:30:00,
2013-07-02 08:36:00,61.5,56.0,30.06,NNE,22,2.9,2.9,82,0.00,CLR,,0.00,0.0,WeatherDisplay:10.37,2013-07-02 13:36:00,
2013-07-02 08:41:00,61.7,55.8,30.06,NNE,22,3.6,3.6,81,0.00,CLR,,0.00,0.0,WeatherDisplay:10.37,2013-07-02 13:41:00,
2013-07-02 08:46:00,62.1,56.2,30.08,North,0,4.6,4.6,81,0.00,CLR,,0.00,0.0,WeatherDisplay:10.37,2013-07-02 13:46:00,
2013-07-02 08:51:00,62.4,56.5,30.08,NE,45,2.6,2.6,81,0.00,CLR,,0.00,0.0,WeatherDisplay:10.37,2013-07-02 13:51:00,
2013-07-02 08:56:00,62.8,56.2,30.08,SE,135,2.3,2.3,79,0.00,CLR,,0.00,0.0,WeatherDisplay:10.37,2013-07-02 13:56:00,
2013-07-02 09:01:00,63.1,56.5,30.08,ESE,112,2.3,2.3,79,0.00,CLR,,0.00,0.0,WeatherDisplay:10.37,2013-07-02 14:01:00,
2013-07-02 09:06:00,63.7,57.0,30.08,NNE,22,2.3,2.3,79,0.00,CLR,,0.00,0.0,WeatherDisplay:10.37,2013-07-02 14:06:00,
2013-07-02 09:12:00,64.2,57.2,30.08,ENE,68,2.4,2.4,78,0.00,CLR,,0.00,0.0,WeatherDisplay:10.37,2013-07-02 14:12:00,
2013-07-02 09:17:00,64.8,57.4,30.08,SSE,158,0.0,0.0,77,0.00,CLR,,0.00,0.0,WeatherDisplay:10.37,2013-07-02 14:17:00,
2013-07-02 09:22:00,65.3,57.5,30.08,NNE,22,3.5,3.5,76,0.00,CLR,,0.00,0.0,WeatherDisplay:10.37,2013-07-02 14:22:00,
2013-07-02 09:27:00,65.7,57.5,30.08,ESE,112,2.3,2.3,75,0.00,CLR,,0.00,0.0,WeatherDisplay:10.37,2013-07-02 14:27:00,
2013-07-02 09:32:00,66.2,57.3,30.08,East,90,2.3,2.3,73,0.00,CLR,,0.00,0.0,WeatherDisplay:10.37,2013-07-02 14:32:00,
2013-07-02 09:37:00,66.6,57.6,30.08,West,270,1.1,1.4,73,0.00,CLR,,0.00,100.0,WeatherDisplay:10.37,2013-07-02 14:37:00,
2013-07-02 09:42:00,66.9,58.0,30.06,NE,45,3.5,3.5,73,0.00,CLR,,0.00,200.0,WeatherDisplay:10.37,2013-07-02 14:42:00,
2013-07-02 09:47:00,67.3,57.6,30.06,NE,45,1.1,1.4,71,0.00,CLR,,0.00,200.0,WeatherDisplay:10.37,2013-07-02 14:47:00,
2013-07-02 09:52:00,68.0,57.8,30.06,East,90,2.3,2.3,70,0.00,CLR,,0.00,200.0,WeatherDisplay:10.37,2013-07-02 14:52:00,
2013-07-02 09:58:00,68.7,58.5,30.06,SSW,202,2.3,2.3,70,0.00,CLR,,0.00,200.0,WeatherDisplay:10.37,2013-07-02 14:58:00,
2013-07-02 10:03:00,69.4,58.8,30.06,SE,135,2.6,2.6,69,0.00,CLR,,0.00,200.0,WeatherDisplay:10.37,2013-07-02 15:03:00,
2013-07-02 10:08:00,70.2,59.1,30.06,NNE,22,1.1,0.0,68,0.00,CLR,,0.00,200.0,WeatherDisplay:10.37,2013-07-02 15:08:00,
2013-07-02 10:13:00,71.1,59.1,30.06,NNE,22,2.3,2.3,66,0.00,CLR,,0.00,300.0,WeatherDisplay:10.37,2013-07-02 15:13:00,
2013-07-02 10:18:00,71.6,59.6,30.06,NNW,338,2.3,2.3,66,0.00,CLR,,0.00,300.0,WeatherDisplay:10.37,2013-07-02 15:18:00,
2013-07-02 10:23:00,72.1,59.3,30.06,ENE,68,3.5,3.5,64,0.00,CLR,,0.00,300.0,WeatherDisplay:10.37,2013-07-02 15:23:00,
2013-07-02 10:28:00,72.5,58.7,30.06,North,0,5.8,5.8,62,0.00,CLR,,0.00,300.0,WeatherDisplay:10.37,2013-07-02 15:28:00,
2013-07-02 10:33:00,72.9,58.6,30.06,NNE,22,2.6,2.6,61,0.00,CLR,,0.00,300.0,WeatherDisplay:10.37,2013-07-02 15:33:00,
2013-07-02 10:39:00,73.4,58.7,30.06,NNE,22,4.3,4.3,60,0.00,CLR,,0.00,300.0,WeatherDisplay:10.37,2013-07-02 15:39:00,
2013-07-02 10:44:00,73.8,58.5,30.06,NNE,22,3.5,3.5,59,0.00,CLR,,0.00,400.0,WeatherDisplay:10.37,2013-07-02 15:44:00,
2013-07-02 10:49:00,74.5,58.7,30.06,SSW,202,2.3,2.3,58,0.00,CLR,,0.00,400.0,WeatherDisplay:10.37,2013-07-02 15:49:00,
2013-07-02 10:54:00,74.8,58.6,30.06,ENE,68,3.5,3.5,57,0.00,CLR,,0.00,400.0,WeatherDisplay:10.37,2013-07-02 15:54:00,
2013-07-02 10:59:00,75.2,58.4,30.06,NE,45,3.5,3.5,56,0.00,CLR,,0.00,400.0,WeatherDisplay:10.37,2013-07-02 15:59:00,
2013-07-02 11:05:00,75.6,58.3,30.06,NE,45,1.6,1.6,55,0.00,CLR,,0.00,400.0,WeatherDisplay:10.37,2013-07-02 16:05:00,
2013-07-02 11:10:00,75.9,58.1,30.06,NE,45,4.6,4.6,54,0.00,CLR,,0.00,400.0,WeatherDisplay:10.37,2013-07-02 16:10:00,
2013-07-02 11:15:00,76.5,58.1,30.06,WNW,292,2.3,2.3,53,0.00,CLR,,0.00,400.0,WeatherDisplay:10.37,2013-07-02 16:15:00,
2013-07-02 11:20:00,76.8,58.4,30.06,NE,45,4.6,4.6,53,0.00,CLR,,0.00,400.0,WeatherDisplay:10.37,2013-07-02 16:20:00,
2013-07-02 11:25:00,77.4,57.8,30.06,East,90,1.4,1.4,51,0.00,CLR,,0.00,400.0,WeatherDisplay:10.37,2013-07-02 16:25:00,
2013-07-02 11:30:00,77.7,58.7,30.06,ENE,68,4.6,4.6,52,0.00,CLR,,0.00,400.0,WeatherDisplay:10.37,2013-07-02 16:30:00,
2013-07-02 11:36:00,77.9,57.8,30.06,NNE,22,2.3,2.3,50,0.00,CLR,,0.00,500.0,WeatherDisplay:10.37,2013-07-02 16:36:00,
2013-07-02 11:41:00,78.1,57.9,30.06,NW,315,3.5,3.5,50,0.00,CLR,,0.00,500.0,WeatherDisplay:10.37,2013-07-02 16:41:00,
2013-07-02 11:46:00,78.4,58.3,30.06,North,0,4.6,4.6,50,0.00,CLR,,0.00,500.0,WeatherDisplay:10.37,2013-07-02 16:46:00,
2013-07-02 11:51:00,79.0,58.2,30.06,NNE,22,2.3,2.3,49,0.00,CLR,,0.00,500.0,WeatherDisplay:10.37,2013-07-02 16:51:00,
2013-07-02 11:56:00,79.2,57.8,30.06,ENE,68,5.8,5.8,48,0.00,CLR,,0.00,500.0,WeatherDisplay:10.37,2013-07-02 16:56:00,
2013-07-02 12:01:00,79.3,57.9,30.06,NNE,22,1.1,0.0,48,0.00,CLR,,0.00,500.0,WeatherDisplay:10.37,2013-07-02 17:01:00,
2013-07-02 12:07:00,79.7,57.7,30.06,NE,45,4.0,4.0,47,0.00,CLR,,0.00,500.0,WeatherDisplay:10.37,2013-07-02 17:07:00,
2013-07-02 12:12:00,80.1,57.4,30.06,NNW,338,3.8,3.8,46,0.00,CLR,,0.00,500.0,WeatherDisplay:10.37,2013-07-02 17:12:00,
2013-07-02 12:17:00,80.1,56.8,30.03,North,0,3.5,3.5,45,0.00,CLR,,0.00,600.0,WeatherDisplay:10.37,2013-07-02 17:17:00,
2013-07-02 12:22:00,80.1,56.2,30.03,NNW,338,2.6,2.6,44,0.00,CLR,,0.00,600.0,WeatherDisplay:10.37,2013-07-02 17:22:00,
2013-07-02 12:27:00,80.4,57.1,30.06,East,90,2.6,2.6,45,0.00,CLR,,0.00,600.0,WeatherDisplay:10.37,2013-07-02 17:27:00,
2013-07-02 12:33:00,80.6,56.7,30.06,ESE,112,3.5,3.5,44,0.00,CLR,,0.00,600.0,WeatherDisplay:10.37,2013-07-02 17:33:00,
2013-07-02 12:38:00,81.3,57.9,30.06,NNE,22,3.6,3.6,45,0.00,CLR,,0.00,600.0,WeatherDisplay:10.37,2013-07-02 17:38:00,
2013-07-02 12:43:00,81.5,58.1,30.03,SSW,202,2.6,2.6,45,0.00,CLR,,0.00,600.0,WeatherDisplay:10.37,2013-07-02 17:43:00,
2013-07-02 12:49:00,81.7,57.6,30.03,ENE,68,3.8,3.8,44,0.00,CLR,,0.00,0.0,WeatherDisplay:10.37,2013-07-02 17:49:00,
2013-07-02 12:54:00,81.3,56.7,30.03,NNE,22,4.6,4.6,43,0.00,CLR,,0.00,600.0,WeatherDisplay:10.37,2013-07-02 17:54:00,
2013-07-02 12:59:00,81.3,56.7,30.06,East,90,3.5,3.5,43,0.00,CLR,,0.00,600.0,WeatherDisplay:10.37,2013-07-02 17:59:00,
2013-07-02 13:04:00,81.7,57.0,30.06,ENE,68,4.6,4.6,43,0.00,CLR,,0.00,600.0,WeatherDisplay:10.37,2013-07-02 18:04:00,
2013-07-02 13:09:00,81.9,57.2,30.06,South,180,3.5,3.5,43,0.00,CLR,,0.00,600.0,WeatherDisplay:10.37,2013-07-02 18:09:00,
2013-07-02 13:14:00,82.0,57.3,30.03,NNE,22,3.6,3.6,43,0.00,CLR,,0.00,600.0,WeatherDisplay:10.37,2013-07-02 18:14:00,
2013-07-02 13:20:00,81.5,56.2,30.03,ENE,68,4.6,4.6,42,0.00,CLR,,0.00,600.0,WeatherDisplay:10.37,2013-07-02 18:20:00,
2013-07-02 13:25:00,81.5,56.2,30.03,NE,45,4.6,4.6,42,0.00,CLR,,0.00,600.0,WeatherDisplay:10.37,2013-07-02 18:25:00,
2013-07-02 13:30:00,81.7,56.4,30.03,NE,45,6.0,6.0,42,0.00,CLR,,0.00,600.0,WeatherDisplay:10.37,2013-07-02 18:30:00,
2013-07-02 13:35:00,81.5,56.2,30.03,East,90,6.9,6.9,42,0.00,CLR,,0.00,600.0,WeatherDisplay:10.37,2013-07-02 18:35:00,
2013-07-02 13:41:00,81.5,56.2,30.03,NW,315,4.6,4.6,42,0.00,CLR,,0.00,500.0,WeatherDisplay:10.37,2013-07-02 18:41:00,
2013-07-02 13:46:00,81.7,56.4,30.00,East,90,4.9,4.9,42,0.00,CLR,,0.00,500.0,WeatherDisplay:10.37,2013-07-02 18:46:00,
2013-07-02 13:51:00,81.7,56.4,30.00,NNE,22,2.3,2.3,42,0.00,CLR,,0.00,500.0,WeatherDisplay:10.37,2013-07-02 18:51:00,
2013-07-02 13:56:00,82.0,56.7,30.00,South,180,2.4,2.4,42,0.00,CLR,,0.00,500.0,WeatherDisplay:10.37,2013-07-02 18:56:00,
2013-07-02 14:01:00,82.2,56.2,30.03,NNE,22,3.5,3.5,41,0.00,CLR,,0.00,500.0,WeatherDisplay:10.37,2013-07-02 19:01:00,
2013-07-02 14:06:00,82.2,56.2,30.03,ENE,68,4.9,4.9,41,0.00,CLR,,0.00,500.0,WeatherDisplay:10.37,2013-07-02 19:06:00,
2013-07-02 14:11:00,82.4,56.3,30.03,NNE,22,2.3,2.3,41,0.00,CLR,,0.00,500.0,WeatherDisplay:10.37,2013-07-02 19:11:00,
2013-07-02 14:17:00,81.5,55.5,30.00,NNE,22,6.9,6.9,41,0.00,CLR,,0.00,0.0,WeatherDisplay:10.37,2013-07-02 19:17:00,
2013-07-02 14:22:00,81.0,55.0,30.00,NNE,22,2.3,2.3,41,0.00,CLR,,0.00,200.0,WeatherDisplay:10.37,2013-07-02 19:22:00,
2013-07-02 14:27:00,81.5,55.5,30.00,ENE,68,4.0,4.0,41,0.00,CLR,,0.00,100.0,WeatherDisplay:10.37,2013-07-02 19:27:00,
2013-07-02 14:32:00,81.3,55.4,30.00,ESE,112,2.3,2.3,41,0.00,CLR,,0.00,200.0,WeatherDisplay:10.37,2013-07-02 19:32:00,
2013-07-02 14:37:00,81.7,55.7,30.00,NNW,338,2.3,2.3,41,0.00,CLR,,0.00,400.0,WeatherDisplay:10.37,2013-07-02 19:37:00,
2013-07-02 14:42:00,82.0,55.3,30.00,ESE,112,1.4,1.4,40,0.00,CLR,,0.00,400.0,WeatherDisplay:10.37,2013-07-02 19:42:00,
2013-07-02 14:48:00,82.0,55.3,30.00,East,90,2.3,2.3,40,0.00,CLR,,0.00,400.0,WeatherDisplay:10.37,2013-07-02 19:48:00,
2013-07-02 14:53:00,82.6,55.8,30.00,NNE,22,2.3,2.4,40,0.00,CLR,,0.00,400.0,WeatherDisplay:10.37,2013-07-02 19:53:00,
2013-07-02 14:58:00,82.8,56.0,30.00,ESE,112,2.3,2.4,40,0.00,CLR,,0.00,400.0,WeatherDisplay:10.37,2013-07-02 19:58:00,
2013-07-02 15:03:00,83.1,56.3,30.00,East,90,3.3,3.3,40,0.00,CLR,,0.00,400.0,WeatherDisplay:10.37,2013-07-02 20:03:00,
2013-07-02 15:09:00,82.9,55.4,30.00,East,90,2.3,2.3,39,0.00,CLR,,0.00,300.0,WeatherDisplay:10.37,2013-07-02 20:09:00,
2013-07-02 15:14:00,82.9,55.4,30.00,East,90,2.3,0.0,39,0.00,CLR,,0.00,300.0,WeatherDisplay:10.37,2013-07-02 20:14:00,
2013-07-02 15:19:00,82.6,55.1,30.00,NNE,22,4.9,4.9,39,0.00,CLR,,0.00,300.0,WeatherDisplay:10.37,2013-07-02 20:19:00,
2013-07-02 15:25:00,81.9,54.5,30.00,ENE,68,3.5,3.5,39,0.00,CLR,,0.00,0.0,WeatherDisplay:10.37,2013-07-02 20:25:00,
2013-07-02 15:30:00,81.3,54.7,30.06,ESE,112,3.5,3.5,40,0.00,CLR,,0.00,0.0,WeatherDisplay:10.37,2013-07-02 20:30:00,
2013-07-02 15:35:00,81.1,54.5,30.06,East,90,2.3,2.3,40,0.00,CLR,,0.00,300.0,WeatherDisplay:10.37,2013-07-02 20:35:00,
2013-07-02 15:40:00,81.1,54.5,30.06,SW,225,3.1,3.1,40,0.00,CLR,,0.00,300.0,WeatherDisplay:10.37,2013-07-02 20:40:00,
2013-07-02 15:46:00,81.0,54.4,30.03,NNE,22,2.4,2.4,40,0.00,CLR,,0.00,300.0,WeatherDisplay:10.37,2013-07-02 20:46:00,
2013-07-02 15:51:00,80.8,53.5,30.03,NNW,338,5.8,5.8,39,0.00,CLR,,0.00,300.0,WeatherDisplay:10.37,2013-07-02 20:51:00,
2013-07-02 15:56:00,80.6,54.0,30.03,South,180,1.6,1.6,40,0.00,CLR,,0.00,300.0,WeatherDisplay:10.37,2013-07-02 20:56:00,
2013-07-02 16:01:00,80.8,54.2,30.03,SE,135,2.9,2.9,40,0.00,CLR,,0.00,300.0,WeatherDisplay:10.37,2013-07-02 21:01:00,
2013-07-02 16:06:00,80.8,54.2,30.03,ESE,112,1.6,1.6,40,0.00,CLR,,0.00,300.0,WeatherDisplay:10.37,2013-07-02 21:06:00,
2013-07-02 16:11:00,81.0,54.4,30.03,ESE,112,2.9,2.9,40,0.00,CLR,,0.00,300.0,WeatherDisplay:10.37,2013-07-02 21:11:00,
2013-07-02 16:16:00,81.0,53.7,30.03,NNE,22,2.3,2.3,39,0.00,CLR,,0.00,300.0,WeatherDisplay:10.37,2013-07-02 21:16:00,
2013-07-02 16:21:00,81.1,54.5,30.03,SSE,158,3.5,3.5,40,0.00,CLR,,0.00,100.0,WeatherDisplay:10.37,2013-07-02 21:21:00,
2013-07-02 16:26:00,81.0,54.4,30.03,SE,135,1.1,0.0,40,0.00,CLR,,0.00,0.0,WeatherDisplay:10.37,2013-07-02 21:26:00,
2013-07-02 16:31:00,80.8,53.5,30.03,WNW,292,2.3,2.3,39,0.00,CLR,,0.00,0.0,WeatherDisplay:10.37,2013-07-02 21:31:00,
2013-07-02 16:37:00,80.4,53.9,30.03,NNE,22,1.1,0.0,40,0.00,CLR,,0.00,0.0,WeatherDisplay:10.37,2013-07-02 21:37:00,
2013-07-02 16:42:00,80.4,53.9,30.03,ENE,68,4.6,4.6,40,0.00,CLR,,0.00,0.0,WeatherDisplay:10.37,2013-07-02 21:42:00,
2013-07-02 16:47:00,80.2,53.7,30.03,NNE,22,2.0,0.0,40,0.00,CLR,,0.00,0.0,WeatherDisplay:10.37,2013-07-02 21:47:00,
2013-07-02 16:52:00,80.2,53.7,30.03,NNE,22,2.9,2.9,40,0.00,CLR,,0.00,100.0,WeatherDisplay:10.37,2013-07-02 21:52:00,
2013-07-02 16:57:00,80.2,53.7,30.03,South,180,1.1,1.1,40,0.00,CLR,,0.00,0.0,WeatherDisplay:10.37,2013-07-02 21:57:00,
2013-07-02 17:02:00,80.2,53.7,30.03,NNE,22,3.5,3.5,40,0.00,CLR,,0.00,0.0,WeatherDisplay:10.37,2013-07-02 22:02:00,
2013-07-02 17:08:00,80.2,53.7,30.03,ENE,68,5.4,5.4,40,0.00,CLR,,0.00,0.0,WeatherDisplay:10.37,2013-07-02 22:08:00,
2013-07-02 17:13:00,79.7,53.2,30.03,East,90,2.3,2.3,40,0.00,CLR,,0.00,0.0,WeatherDisplay:10.37,2013-07-02 22:13:00,
2013-07-02 17:18:00,79.3,52.9,30.03,East,90,3.5,3.5,40,0.00,CLR,,0.00,0.0,WeatherDisplay:10.37,2013-07-02 22:18:00,
2013-07-02 17:23:00,79.2,52.1,30.03,NNE,22,3.5,3.5,39,0.00,CLR,,0.00,0.0,WeatherDisplay:10.37,2013-07-02 22:23:00,
2013-07-02 17:28:00,78.8,52.4,30.00,NNE,22,1.4,0.0,40,0.00,CLR,,0.00,0.0,WeatherDisplay:10.37,2013-07-02 22:28:00,
2013-07-02 17:33:00,78.6,52.3,30.00,NNE,22,2.3,0.0,40,0.00,CLR,,0.00,0.0,WeatherDisplay:10.37,2013-07-02 22:33:00,
2013-07-02 17:39:00,78.6,52.9,30.00,NNE,22,1.1,1.1,41,0.00,CLR,,0.00,0.0,WeatherDisplay:10.37,2013-07-02 22:39:00,
2013-07-02 17:44:00,78.8,52.4,30.00,West,270,1.1,1.1,40,0.00,CLR,,0.00,0.0,WeatherDisplay:10.37,2013-07-02 22:44:00,
2013-07-02 17:49:00,79.0,52.6,30.00,South,180,1.1,0.0,40,0.00,CLR,,0.00,0.0,WeatherDisplay:10.37,2013-07-02 22:49:00,
2013-07-02 17:54:00,79.3,52.9,30.00,SW,225,2.3,2.3,40,0.00,CLR,,0.00,0.0,WeatherDisplay:10.37,2013-07-02 22:54:00,
2013-07-02 17:59:00,79.5,53.1,30.00,SSW,202,2.3,0.0,40,0.00,CLR,,0.00,0.0,WeatherDisplay:10.37,2013-07-02 22:59:00,
2013-07-02 18:04:00,79.7,53.2,30.00,NE,45,3.1,3.1,40,0.00,CLR,,0.00,0.0,WeatherDisplay:10.37,2013-07-02 23:04:00,
2013-07-02 18:10:00,79.7,53.2,30.00,NNE,22,3.5,3.5,40,0.00,CLR,,0.00,0.0,WeatherDisplay:10.37,2013-07-02 23:10:00,
2013-07-02 18:15:00,79.7,53.2,30.00,ENE,68,3.5,3.5,40,0.00,CLR,,0.00,0.0,WeatherDisplay:10.37,2013-07-02 23:15:00,
2013-07-02 18:20:00,79.5,53.1,30.00,SE,135,3.5,3.5,40,0.00,CLR,,0.00,0.0,WeatherDisplay:10.37,2013-07-02 23:20:00,
2013-07-02 18:25:00,79.3,52.9,30.00,SE,135,2.3,2.3,40,0.00,CLR,,0.00,0.0,WeatherDisplay:10.37,2013-07-02 23:25:00,
2013-07-02 18:30:00,79.3,52.9,30.00,SE,135,2.3,2.3,40,0.00,CLR,,0.00,0.0,WeatherDisplay:10.37,2013-07-02 23:30:00,
2013-07-02 18:36:00,79.0,52.6,30.00,SE,135,2.3,2.3,40,0.00,CLR,,0.00,0.0,WeatherDisplay:10.37,2013-07-02 23:36:00,
2013-07-02 18:41:00,78.8,52.4,30.00,SE,135,1.1,1.1,40,0.00,CLR,,0.00,0.0,WeatherDisplay:10.37,2013-07-02 23:41:00,
2013-07-02 18:46:00,78.6,52.9,30.00,SE,135,1.1,1.1,41,0.00,CLR,,0.00,0.0,WeatherDisplay:10.37,2013-07-02 23:46:00,
2013-07-02 18:51:00,78.4,52.8,30.00,East,90,2.3,2.3,41,0.00,CLR,,0.00,0.0,WeatherDisplay:10.37,2013-07-02 23:51:00,
2013-07-02 18:54:00,78.3,52.6,30.00,NE,45,2.3,2.3,41,0.00,CLR,,0.00,0.0,WeatherDisplay:10.37,2013-07-02 23:54:00,
2013-07-02 18:59:00,78.1,52.5,30.00,NE,45,2.3,2.3,41,0.00,CLR,,0.00,0.0,WeatherDisplay:10.37,2013-07-02 23:59:00,
2013-07-02 19:01:00,77.9,52.3,30.00,NE,45,2.3,2.3,41,0.00,CLR,,0.00,0.0,WeatherDisplay:10.37,2013-07-03 00:01:00,
2013-07-02 19:06:00,77.7,52.8,30.00,NE,45,1.1,1.1,42,0.00,CLR,,0.00,0.0,WeatherDisplay:10.37,2013-07-03 00:06:00,
2013-07-02 19:07:00,77.7,52.8,30.00,NE,45,1.1,1.1,42,0.00,CLR,,0.00,0.0,WeatherDisplay:10.37,2013-07-03 00:07:00,
2013-07-02 19:13:00,77.4,52.5,30.00,SSE,158,2.3,2.3,42,0.00,CLR,,0.00,0.0,WeatherDisplay:10.37,2013-07-03 00:13:00,
2013-07-02 19:18:00,77.2,52.9,30.00,SSE,158,1.4,0.0,43,0.00,CLR,,0.00,0.0,WeatherDisplay:10.37,2013-07-03 00:18:00,
2013-07-02 19:23:00,77.2,52.9,30.00,SSE,158,1.1,0.0,43,0.00,CLR,,0.00,0.0,WeatherDisplay:10.37,2013-07-03 00:23:00,
2013-07-02 19:25:00,77.0,53.4,30.00,SSE,158,0.0,0.0,44,0.00,CLR,,0.00,0.0,WeatherDisplay:10.37,2013-07-03 00:25:00,
2013-07-02 19:28:00,77.0,53.4,30.00,SSE,158,1.4,1.4,44,0.00,CLR,,0.00,0.0,WeatherDisplay:10.37,2013-07-03 00:28:00,
2013-07-02 19:34:00,76.8,53.9,30.00,SSE,158,0.0,0.0,45,0.00,CLR,,0.00,0.0,WeatherDisplay:10.37,2013-07-03 00:34:00,
2013-07-02 19:39:00,76.5,53.5,30.00,SSE,158,0.0,0.0,45,0.00,CLR,,0.00,0.0,WeatherDisplay:10.37,2013-07-03 00:39:00,
2013-07-02 19:44:00,76.1,53.2,30.00,SSE,158,0.0,0.0,45,0.00,CLR,,0.00,0.0,WeatherDisplay:10.37,2013-07-03 00:44:00,
2013-07-02 19:49:00,75.9,53.6,30.00,SSE,158,0.0,0.0,46,0.00,CLR,,0.00,0.0,WeatherDisplay:10.37,2013-07-03 00:49:00,
2013-07-02 19:54:00,75.7,53.5,30.00,SSE,158,0.0,0.0,46,0.00,CLR,,0.00,0.0,WeatherDisplay:10.37,2013-07-03 00:54:00,
2013-07-02 19:59:00,75.4,53.7,30.00,SSE,158,0.9,0.0,47,0.00,CLR,,0.00,0.0,WeatherDisplay:10.37,2013-07-03 00:59:00,
2013-07-02 20:00:00,75.4,53.7,30.00,SSE,158,1.1,0.0,47,0.00,CLR,,0.00,0.0,WeatherDisplay:10.37,2013-07-03 01:00:00,
2013-07-02 20:03:00,75.2,54.2,30.00,SSE,158,0.0,0.0,48,0.00,CLR,,0.00,0.0,WeatherDisplay:10.37,2013-07-03 01:03:00,
2013-07-02 20:08:00,75.0,54.6,30.00,SSE,158,0.0,0.0,49,0.00,CLR,,0.00,0.0,WeatherDisplay:10.37,2013-07-03 01:08:00,
2013-07-02 20:09:00,74.8,54.4,30.00,SSE,158,0.0,0.0,49,0.00,CLR,,0.00,0.0,WeatherDisplay:10.37,2013-07-03 01:09:00,
2013-07-02 20:14:00,74.5,54.6,30.00,SSE,158,0.0,0.0,50,0.00,CLR,,0.00,0.0,WeatherDisplay:10.37,2013-07-03 01:14:00,
2013-07-02 20:19:00,74.3,55.0,30.00,SSE,158,0.0,0.0,51,0.00,CLR,,0.00,0.0,WeatherDisplay:10.37,2013-07-03 01:19:00,
2013-07-02 20:24:00,73.9,54.7,30.00,SSE,158,0.0,0.0,51,0.00,CLR,,0.00,0.0,WeatherDisplay:10.37,2013-07-03 01:24:00,
2013-07-02 20:27:00,73.8,54.5,30.00,SSE,158,0.0,0.0,51,0.00,CLR,,0.00,0.0,WeatherDisplay:10.37,2013-07-03 01:27:00,
2013-07-02 20:32:00,73.4,55.2,30.00,SSE,158,1.1,0.0,53,0.00,CLR,,0.00,0.0,WeatherDisplay:10.37,2013-07-03 01:32:00,
2013-07-02 20:37:00,73.0,55.4,30.00,SSE,158,0.0,0.0,54,0.00,CLR,,0.00,0.0,WeatherDisplay:10.37,2013-07-03 01:37:00,
2013-07-02 20:42:00,72.7,55.6,30.00,SSE,158,0.0,0.0,55,0.00,CLR,,0.00,0.0,WeatherDisplay:10.37,2013-07-03 01:42:00,
2013-07-02 20:47:00,72.1,55.6,30.00,SSE,158,0.0,0.0,56,0.00,CLR,,0.00,0.0,WeatherDisplay:10.37,2013-07-03 01:47:00,
2013-07-02 20:49:00,72.0,55.9,30.00,SSE,158,0.0,0.0,57,0.00,CLR,,0.00,0.0,WeatherDisplay:10.37,2013-07-03 01:49:00,
2013-07-02 20:50:00,72.0,55.9,30.00,SSE,158,0.0,0.0,57,0.00,CLR,,0.00,0.0,WeatherDisplay:10.37,2013-07-03 01:50:00,
2013-07-02 20:56:00,71.4,56.3,30.00,SSE,158,0.0,0.0,59,0.00,CLR,,0.00,0.0,WeatherDisplay:10.37,2013-07-03 01:56:00,
2013-07-02 21:01:00,70.9,56.8,30.00,South,180,0.0,0.0,61,0.00,CLR,,0.00,0.0,WeatherDisplay:10.37,2013-07-03 02:01:00,
2013-07-02 21:06:00,70.5,57.3,30.00,SW,225,0.0,0.0,63,0.00,CLR,,0.00,0.0,WeatherDisplay:10.37,2013-07-03 02:06:00,
2013-07-02 21:11:00,70.2,57.0,30.00,SW,225,0.0,0.0,63,0.00,CLR,,0.00,0.0,WeatherDisplay:10.37,2013-07-03 02:11:00,
2013-07-02 21:16:00,69.6,56.9,30.00,SW,225,0.0,0.0,64,0.00,CLR,,0.00,0.0,WeatherDisplay:10.37,2013-07-03 02:16:00,
2013-07-02 21:21:00,69.3,57.0,30.00,SSW,202,1.1,0.0,65,0.00,CLR,,0.00,0.0,WeatherDisplay:10.37,2013-07-03 02:21:00,
2013-07-02 21:26:00,68.9,57.1,30.00,SSE,158,1.4,1.4,66,0.00,CLR,,0.00,0.0,WeatherDisplay:10.37,2013-07-03 02:26:00,
2013-07-02 21:32:00,68.5,57.1,30.00,SSE,158,0.0,0.0,67,0.00,CLR,,0.00,0.0,WeatherDisplay:10.37,2013-07-03 02:32:00,
2013-07-02 21:37:00,68.2,57.2,30.00,SSE,158,0.0,0.0,68,0.00,CLR,,0.00,0.0,WeatherDisplay:10.37,2013-07-03 02:37:00,
2013-07-02 21:42:00,68.0,57.4,30.00,SSE,158,0.0,0.0,69,0.00,CLR,,0.00,0.0,WeatherDisplay:10.37,2013-07-03 02:42:00,
2013-07-02 21:47:00,67.6,57.1,30.00,SSE,158,0.0,0.0,69,0.00,CLR,,0.00,0.0,WeatherDisplay:10.37,2013-07-03 02:47:00,
2013-07-02 21:52:00,67.5,56.9,30.00,SSE,158,0.0,0.0,69,0.00,CLR,,0.00,0.0,WeatherDisplay:10.37,2013-07-03 02:52:00,
2013-07-02 21:57:00,67.1,57.0,30.00,SSE,158,0.0,0.0,70,0.00,CLR,,0.00,0.0,WeatherDisplay:10.37,2013-07-03 02:57:00,
2013-07-02 22:02:00,66.9,56.8,30.00,SSE,158,1.1,1.1,70,0.00,CLR,,0.00,0.0,WeatherDisplay:10.37,2013-07-03 03:02:00,
2013-07-02 22:08:00,66.7,56.2,30.00,SSE,158,0.0,0.0,69,0.00,CLR,,0.00,0.0,WeatherDisplay:10.37,2013-07-03 03:08:00,
2013-07-02 22:13:00,66.6,56.5,30.00,SSE,158,0.0,0.0,70,0.00,CLR,,0.00,0.0,WeatherDisplay:10.37,2013-07-03 03:13:00,
2013-07-02 22:18:00,66.4,56.3,30.00,SSE,158,0.0,0.0,70,0.00,CLR,,0.00,0.0,WeatherDisplay:10.37,2013-07-03 03:18:00,
2013-07-02 22:20:00,66.4,56.3,30.00,SSE,158,0.0,0.0,70,0.00,CLR,,0.00,0.0,WeatherDisplay:10.37,2013-07-03 03:20:00,
2013-07-02 22:25:00,66.0,56.3,30.00,SSE,158,0.0,0.0,71,0.00,CLR,,0.00,0.0,WeatherDisplay:10.37,2013-07-03 03:25:00,
2013-07-02 22:30:00,65.8,56.2,30.00,SSE,158,2.3,2.3,71,0.00,CLR,,0.00,0.0,WeatherDisplay:10.37,2013-07-03 03:30:00,
2013-07-02 22:35:00,65.7,56.4,30.00,SSE,158,2.3,2.3,72,0.00,CLR,,0.00,0.0,WeatherDisplay:10.37,2013-07-03 03:35:00,
2013-07-02 22:39:00,65.5,56.2,30.00,SE,135,1.1,0.0,72,0.00,CLR,,0.00,0.0,WeatherDisplay:10.37,2013-07-03 03:39:00,
2013-07-02 22:44:00,65.3,56.0,30.00,SE,135,2.3,2.3,72,0.00,CLR,,0.00,0.0,WeatherDisplay:10.37,2013-07-03 03:44:00,
2013-07-02 22:50:00,65.1,56.2,30.00,SE,135,0.0,0.0,73,0.00,CLR,,0.00,0.0,WeatherDisplay:10.37,2013-07-03 03:50:00,
2013-07-02 22:55:00,65.1,56.2,30.00,NW,315,2.0,2.0,73,0.00,CLR,,0.00,0.0,WeatherDisplay:10.37,2013-07-03 03:55:00,
2013-07-02 22:59:00,64.8,56.3,30.00,NW,315,1.1,1.1,74,0.00,CLR,,0.00,0.0,WeatherDisplay:10.37,2013-07-03 03:59:00,
2013-07-02 23:01:00,64.8,56.3,30.00,NNE,22,1.1,0.0,74,0.00,CLR,,0.00,0.0,WeatherDisplay:10.37,2013-07-03 04:01:00,
2013-07-02 23:02:00,64.8,56.3,30.00,NNE,22,1.1,0.0,74,0.00,CLR,,0.00,0.0,WeatherDisplay:10.37,2013-07-03 04:02:00,
2013-07-02 23:04:00,64.6,56.5,30.00,South,180,0.0,0.0,75,0.00,CLR,,0.00,0.0,WeatherDisplay:10.37,2013-07-03 04:04:00,
2013-07-02 23:06:00,64.4,56.7,30.00,South,180,0.0,0.0,76,0.00,CLR,,0.00,0.0,WeatherDisplay:10.37,2013-07-03 04:06:00,
2013-07-02 23:09:00,64.4,57.0,30.00,SE,135,1.6,0.0,77,0.00,CLR,,0.00,0.0,WeatherDisplay:10.37,2013-07-03 04:09:00,
2013-07-02 23:14:00,64.2,57.2,30.00,SE,135,1.4,1.4,78,0.00,CLR,,0.00,0.0,WeatherDisplay:10.37,2013-07-03 04:14:00,
2013-07-02 23:19:00,63.9,56.9,30.00,SE,135,1.4,1.4,78,0.00,CLR,,0.00,0.0,WeatherDisplay:10.37,2013-07-03 04:19:00,
2013-07-02 23:24:00,63.9,56.9,30.00,SE,135,1.1,1.1,78,0.00,CLR,,0.00,0.0,WeatherDisplay:10.37,2013-07-03 04:24:00,
2013-07-02 23:29:00,63.7,56.7,30.00,SE,135,0.0,0.0,78,0.00,CLR,,0.00,0.0,WeatherDisplay:10.37,2013-07-03 04:29:00,
2013-07-02 23:33:00,63.7,57.0,30.00,SE,135,1.6,1.6,79,0.00,CLR,,0.00,0.0,WeatherDisplay:10.37,2013-07-03 04:33:00,
2013-07-02 23:38:00,63.5,56.9,30.00,SE,135,0.0,0.0,79,0.00,CLR,,0.00,0.0,WeatherDisplay:10.37,2013-07-03 04:38:00,
2013-07-02 23:44:00,63.3,56.7,30.00,SE,135,0.0,0.0,79,0.00,CLR,,0.00,0.0,WeatherDisplay:10.37,2013-07-03 04:44:00,
2013-07-02 23:47:00,63.1,56.5,30.00,SE,135,0.0,0.0,79,0.00,CLR,,0.00,0.0,WeatherDisplay:10.37,2013-07-03 04:47:00,
2013-07-02 23:48:00,63.1,56.5,30.00,SE,135,0.0,0.0,79,0.00,CLR,,0.00,0.0,WeatherDisplay:10.37,2013-07-03 04:48:00,
2013-07-02 23:53:00,63.0,56.7,30.00,SE,135,0.0,0.0,80,0.00,CLR,,0.00,0.0,WeatherDisplay:10.37,2013-07-03 04:53:00,
2013-07-02 23:54:00,62.8,56.5,30.00,SE,135,0.0,0.0,80,0.00,CLR,,0.00,0.0,WeatherDisplay:10.37,2013-07-03 04:54:00,
2013-07-02 23:59:00,62.6,56.3,30.00,SE,135,1.1,0.0,80,0.00,CLR,,0.00,0.0,WeatherDisplay:10.37,2013-07-03 04:59:00,